When you browse on this site, cookies collect data to enhance your experience and personalize the content and advertising you see.
Visit our Privacy Policy to learn more. By continuing to use the site, you agree to this use of cookies and data.

Hourly Weather Eišiškės

Today, 12 August, Wednesday

Time Temperature Precipitation Wind Pressure Humidity
00:00 +13°C° 0 mm 2 mps 752 mmHg 85%
01:00 +13°C° 0 mm 2 mps 752 mmHg 86%
02:00 +13°C° 0 mm 1 mps 752 mmHg 87%
03:00 +12°C° 0 mm 2 mps 752 mmHg 88%
04:00 +12°C° 0 mm 2 mps 752 mmHg 89%
05:00 +10°C° 0 mm 2 mps 752 mmHg 90%
06:00 +13°C° 0 mm 2 mps 752 mmHg 84%
07:00 +14°C° 0 mm 2 mps 752 mmHg 78%
08:00 +14°C° 0 mm 3 mps 752 mmHg 71%
09:00 +16°C° 0 mm 3 mps 752 mmHg 67%
10:00 +17°C° 0 mm 3 mps 752 mmHg 63%
11:00 +18°C° 0 mm 3 mps 752 mmHg 58%
12:00 +19°C° 0 mm 3 mps 752 mmHg 58%
13:00 +19°C° 0 mm 3 mps 752 mmHg 57%
14:00 +20°C° 0 mm 2 mps 752 mmHg 57%
15:00 +19°C° 0 mm 2 mps 752 mmHg 58%
16:00 +19°C° 0 mm 2 mps 752 mmHg 60%
17:00 +19°C° 0 mm 2 mps 752 mmHg 61%
18:00 +17°C° 0 mm 2 mps 752 mmHg 67%
19:00 +16°C° 0 mm 2 mps 752 mmHg 72%
20:00 +14°C° 0 mm 2 mps 752 mmHg 77%
21:00 +13°C° 0 mm 1 mps 752 mmHg 80%
22:00 +13°C° 0 mm 1 mps 752 mmHg 82%
23:00 +12°C° 0 mm 1 mps 752 mmHg 85%

Tomorrow, 13 August, Thursday

Time Temperature Precipitation Wind Pressure Humidity
00:00 +12°C° 0 mm 1 mps 752 mmHg 86%
01:00 +11°C° 0 mm 1 mps 752 mmHg 87%
02:00 +10°C° 0 mm 0 mps 752 mmHg 88%
03:00 +10°C° 0 mm 0 mps 752 mmHg 89%
04:00 +9°C° 0 mm 0 mps 751 mmHg 89%
05:00 +9°C° 0 mm 0 mps 751 mmHg 90%
06:00 +12°C° 0 mm 1 mps 751 mmHg 84%
07:00 +14°C° 0 mm 1 mps 751 mmHg 78%
08:00 +15°C° 0 mm 1 mps 751 mmHg 72%
09:00 +18°C° 0 mm 1 mps 751 mmHg 67%
10:00 +19°C° 0 mm 1 mps 751 mmHg 61%
11:00 +21°C° 0 mm 1 mps 751 mmHg 56%
12:00 +20°C° 0 mm 2 mps 751 mmHg 54%
13:00 +21°C° 0 mm 2 mps 750 mmHg 52%
14:00 +21°C° 0 mm 2 mps 750 mmHg 51%
15:00 +22°C° 0 mm 1 mps 750 mmHg 53%
16:00 +22°C° 0 mm 1 mps 750 mmHg 55%
17:00 +22°C° 0 mm 1 mps 750 mmHg 57%
18:00 +20°C° 0 mm 1 mps 750 mmHg 64%
19:00 +18°C° 0 mm 1 mps 750 mmHg 71%
20:00 +15°C° 0 mm 1 mps 750 mmHg 78%
21:00 +15°C° 0 mm 1 mps 750 mmHg 80%
22:00 +13°C° 0 mm 0 mps 750 mmHg 82%
23:00 +12°C° 0 mm 0 mps 750 mmHg 85%

Day after tomorrow, 14 August, Friday

Time Temperature Precipitation Wind Pressure Humidity
00:00 +12°C° 0 mm 0 mps 750 mmHg 86%
01:00 +12°C° 0 mm 0 mps 750 mmHg 86%
02:00 +12°C° 0 mm 0 mps 750 mmHg 87%
03:00 +11°C° 0 mm 0 mps 750 mmHg 88%
04:00 +11°C° 0 mm 0 mps 750 mmHg 89%
05:00 +11°C° 0 mm 0 mps 750 mmHg 89%
06:00 +13°C° 0 mm 0 mps 750 mmHg 83%
07:00 +15°C° 0 mm 0 mps 750 mmHg 77%
08:00 +17°C° 0 mm 0 mps 750 mmHg 71%
09:00 +20°C° 0 mm 1 mps 750 mmHg 66%
10:00 +22°C° 0 mm 1 mps 750 mmHg 61%
11:00 +23°C° 0 mm 1 mps 750 mmHg 56%
12:00 +24°C° 0 mm 1 mps 750 mmHg 55%
13:00 +24°C° 0 mm 1 mps 750 mmHg 54%
14:00 +24°C° 0 mm 1 mps 750 mmHg 53%
15:00 +24°C° 0.1 mm 1 mps 750 mmHg 54%
16:00 +24°C° 0.1 mm 1 mps 750 mmHg 56%
17:00 +24°C° 0.1 mm 1 mps 749 mmHg 58%
18:00 +22°C° 0.1 mm 1 mps 749 mmHg 64%
19:00 +20°C° 0.1 mm 1 mps 749 mmHg 70%
20:00 +18°C° 0.1 mm 1 mps 749 mmHg 76%
21:00 +18°C° 0 mm 1 mps 749 mmHg 78%
22:00 +16°C° 0 mm 1 mps 750 mmHg 80%
23:00 +16°C° 0 mm 1 mps 750 mmHg 82%

15 August, Saturday

Time Temperature Precipitation Wind Pressure Humidity
00:00 +16°C° 0 mm 1 mps 750 mmHg 83%
01:00 +15°C° 0 mm 1 mps 750 mmHg 85%
02:00 +15°C° 0 mm 1 mps 750 mmHg 86%
03:00 +14°C° 0 mm 1 mps 750 mmHg 87%
04:00 +14°C° 0 mm 1 mps 750 mmHg 88%
05:00 +14°C° 0 mm 1 mps 750 mmHg 89%
06:00 +15°C° 0 mm 1 mps 750 mmHg 84%
07:00 +18°C° 0 mm 1 mps 750 mmHg 78%
08:00 +20°C° 0 mm 1 mps 750 mmHg 73%
09:00 +21°C° 0 mm 1 mps 751 mmHg 67%
10:00 +23°C° 0 mm 1 mps 751 mmHg 61%
11:00 +25°C° 0 mm 1 mps 751 mmHg 55%
12:00 +25°C° 0 mm 1 mps 751 mmHg 53%
13:00 +25°C° 0 mm 1 mps 750 mmHg 51%
14:00 +26°C° 0 mm 1 mps 750 mmHg 49%
15:00 +25°C° 0 mm 1 mps 750 mmHg 50%
16:00 +25°C° 0 mm 1 mps 750 mmHg 52%
17:00 +25°C° 0 mm 1 mps 750 mmHg 53%
18:00 +24°C° 0 mm 1 mps 750 mmHg 59%
19:00 +22°C° 0 mm 1 mps 750 mmHg 65%
20:00 +20°C° 0 mm 1 mps 750 mmHg 71%
21:00 +19°C° 0 mm 1 mps 750 mmHg 74%
22:00 +16°C° 0 mm 0 mps 750 mmHg 76%
23:00 +16°C° 0 mm 0 mps 750 mmHg 79%

16 August, Sunday

Time Temperature Precipitation Wind Pressure Humidity
00:00 +15°C° 0 mm 0 mps 750 mmHg 81%
01:00 +15°C° 0 mm 0 mps 751 mmHg 82%
02:00 +14°C° 0 mm 0 mps 751 mmHg 83%
03:00 +14°C° 0 mm 0 mps 751 mmHg 84%
04:00 +14°C° 0 mm 0 mps 751 mmHg 85%
05:00 +14°C° 0 mm 0 mps 750 mmHg 86%
06:00 +15°C° 0 mm 0 mps 751 mmHg 80%
07:00 +17°C° 0 mm 0 mps 751 mmHg 74%
08:00 +19°C° 0 mm 0 mps 751 mmHg 68%
09:00 +21°C° 0 mm 0 mps 751 mmHg 63%
10:00 +22°C° 0 mm 0 mps 751 mmHg 58%
11:00 +24°C° 0 mm 0 mps 751 mmHg 53%
12:00 +25°C° 0 mm 0 mps 751 mmHg 51%
13:00 +27°C° 0 mm 1 mps 751 mmHg 49%
14:00 +27°C° 0 mm 1 mps 751 mmHg 46%
15:00 +27°C° 0 mm 1 mps 750 mmHg 48%
16:00 +27°C° 0 mm 1 mps 750 mmHg 50%
17:00 +26°C° 0 mm 1 mps 750 mmHg 51%
18:00 +24°C° 0 mm 1 mps 750 mmHg 57%
19:00 +23°C° 0 mm 1 mps 750 mmHg 64%
20:00 +21°C° 0 mm 1 mps 750 mmHg 70%
21:00 +20°C° 0 mm 1 mps 750 mmHg 73%
22:00 +17°C° 0 mm 0 mps 750 mmHg 76%
23:00 +16°C° 0 mm 0 mps 750 mmHg 79%

17 August, Monday

Time Temperature Precipitation Wind Pressure Humidity
00:00 +16°C° 0 mm 0 mps 750 mmHg 81%
01:00 +16°C° 0 mm 0 mps 750 mmHg 83%
02:00 +15°C° 0 mm 0 mps 750 mmHg 84%
03:00 +16°C° 0 mm 1 mps 750 mmHg 85%
04:00 +16°C° 0 mm 1 mps 750 mmHg 86%
05:00 +16°C° 0 mm 1 mps 749 mmHg 87%
06:00 +18°C° 0 mm 1 mps 749 mmHg 82%
07:00 +20°C° 0 mm 1 mps 749 mmHg 77%
08:00 +20°C° 0 mm 2 mps 749 mmHg 72%
09:00 +23°C° 0 mm 2 mps 749 mmHg 67%
10:00 +24°C° 0 mm 3 mps 749 mmHg 61%
11:00 +26°C° 0 mm 3 mps 749 mmHg 56%
12:00 +26°C° 0 mm 3 mps 748 mmHg 55%
13:00 +26°C° 0 mm 3 mps 748 mmHg 55%
14:00 +26°C° 0 mm 3 mps 747 mmHg 54%
15:00 +25°C° 0 mm 2 mps 747 mmHg 57%
16:00 +24°C° 0 mm 2 mps 747 mmHg 59%
17:00 +23°C° 0 mm 2 mps 746 mmHg 62%
18:00 +21°C° 0 mm 2 mps 746 mmHg 64%
19:00 +20°C° 0 mm 2 mps 746 mmHg 67%
20:00 +20°C° 0 mm 2 mps 745 mmHg 69%
21:00 +19°C° 0.2 mm 2 mps 745 mmHg 71%
22:00 +19°C° 0.2 mm 2 mps 745 mmHg 73%
23:00 +19°C° 0.2 mm 2 mps 745 mmHg 74%
Show more